• In France
  • List of Countries
  • For 7 days
  • Water Temperature
  • Satellite Maps
  • Weather Map
  • Weather Widgets
  • user-avatar
    Login

    Hourly Weather Liberia

    Today, 20 February, Tuesday

    Time Temperature Precipitation Wind Pressure Humidity
    00:00 +24°C° 0 mm 6 mps 746 mmHg 78%
    01:00 +24°C° 0 mm 6 mps 746 mmHg 78%
    02:00 +24°C° 0 mm 6 mps 746 mmHg 78%
    03:00 +23°C° 0 mm 6 mps 745 mmHg 79%
    04:00 +23°C° 0 mm 6 mps 746 mmHg 78%
    05:00 +23°C° 0 mm 6 mps 746 mmHg 78%
    06:00 +23°C° 0 mm 6 mps 746 mmHg 78%
    07:00 +26°C° 0 mm 6 mps 746 mmHg 69%
    08:00 +28°C° 0 mm 7 mps 747 mmHg 60%
    09:00 +30°C° 0 mm 7 mps 747 mmHg 51%
    10:00 +32°C° 0 mm 7 mps 747 mmHg 48%
    11:00 +34°C° 0 mm 8 mps 747 mmHg 44%
    12:00 +35°C° 0 mm 8 mps 747 mmHg 41%
    13:00 +35°C° 0 mm 8 mps 746 mmHg 42%
    14:00 +35°C° 0 mm 8 mps 745 mmHg 43%
    15:00 +35°C° 0 mm 8 mps 745 mmHg 43%
    16:00 +33°C° 0 mm 8 mps 745 mmHg 50%
    17:00 +30°C° 0 mm 7 mps 745 mmHg 56%
    18:00 +28°C° 0 mm 7 mps 745 mmHg 62%
    19:00 +27°C° 0 mm 7 mps 746 mmHg 66%
    20:00 +26°C° 0 mm 7 mps 746 mmHg 70%
    21:00 +26°C° 0 mm 6 mps 747 mmHg 74%
    22:00 +24°C° 0 mm 6 mps 747 mmHg 75%
    23:00 +24°C° 0 mm 6 mps 747 mmHg 76%

    Tomorrow, 21 February, Wednesday

    Time Temperature Precipitation Wind Pressure Humidity
    00:00 +24°C° 0 mm 6 mps 747 mmHg 77%
    01:00 +24°C° 0 mm 6 mps 747 mmHg 78%
    02:00 +24°C° 0 mm 6 mps 746 mmHg 78%
    03:00 +24°C° 0 mm 6 mps 746 mmHg 78%
    04:00 +24°C° 0 mm 6 mps 746 mmHg 78%
    05:00 +24°C° 0 mm 6 mps 746 mmHg 78%
    06:00 +24°C° 0 mm 6 mps 746 mmHg 78%
    07:00 +26°C° 0 mm 7 mps 747 mmHg 71%
    08:00 +28°C° 0 mm 7 mps 747 mmHg 65%
    09:00 +31°C° 0 mm 8 mps 748 mmHg 58%
    10:00 +32°C° 0 mm 8 mps 748 mmHg 55%
    11:00 +33°C° 0 mm 8 mps 747 mmHg 51%
    12:00 +34°C° 0 mm 8 mps 747 mmHg 47%
    13:00 +34°C° 0 mm 7 mps 746 mmHg 48%
    14:00 +34°C° 0 mm 7 mps 746 mmHg 48%
    15:00 +34°C° 0 mm 7 mps 745 mmHg 49%
    16:00 +32°C° 0 mm 7 mps 745 mmHg 55%
    17:00 +29°C° 0 mm 6 mps 746 mmHg 62%
    18:00 +28°C° 0 mm 6 mps 746 mmHg 68%
    19:00 +27°C° 0 mm 6 mps 747 mmHg 71%
    20:00 +26°C° 0 mm 6 mps 747 mmHg 74%
    21:00 +26°C° 0 mm 6 mps 748 mmHg 77%
    22:00 +26°C° 0 mm 6 mps 748 mmHg 78%
    23:00 +26°C° 0 mm 6 mps 747 mmHg 79%

    Day after tomorrow, 22 February, Thursday

    Time Temperature Precipitation Wind Pressure Humidity
    00:00 +24°C° 0 mm 6 mps 747 mmHg 79%
    01:00 +24°C° 0 mm 6 mps 747 mmHg 80%
    02:00 +24°C° 0 mm 6 mps 746 mmHg 80%
    03:00 +24°C° 0 mm 6 mps 746 mmHg 81%
    04:00 +24°C° 0 mm 6 mps 746 mmHg 80%
    05:00 +24°C° 0 mm 6 mps 747 mmHg 79%
    06:00 +24°C° 0 mm 7 mps 747 mmHg 78%
    07:00 +27°C° 0 mm 7 mps 747 mmHg 72%
    08:00 +28°C° 0 mm 8 mps 748 mmHg 65%
    09:00 +31°C° 0 mm 8 mps 748 mmHg 59%
    10:00 +32°C° 0 mm 8 mps 748 mmHg 54%
    11:00 +33°C° 0 mm 8 mps 747 mmHg 49%
    12:00 +35°C° 0 mm 8 mps 747 mmHg 44%
    13:00 +35°C° 0 mm 8 mps 746 mmHg 43%
    14:00 +35°C° 0 mm 8 mps 745 mmHg 42%
    15:00 +35°C° 0 mm 7 mps 745 mmHg 41%
    16:00 +33°C° 0 mm 7 mps 745 mmHg 47%
    17:00 +30°C° 0 mm 6 mps 745 mmHg 53%
    18:00 +29°C° 0 mm 6 mps 745 mmHg 59%
    19:00 +28°C° 0 mm 6 mps 746 mmHg 64%
    20:00 +27°C° 0 mm 5 mps 747 mmHg 70%
    21:00 +26°C° 0 mm 5 mps 747 mmHg 75%
    22:00 +25°C° 0.1 mm 5 mps 747 mmHg 77%
    23:00 +25°C° 0.1 mm 5 mps 747 mmHg 78%

    23 February, Friday

    Time Temperature Precipitation Wind Pressure Humidity
    00:00 +25°C° 0.1 mm 5 mps 747 mmHg 79%
    01:00 +25°C° 0 mm 5 mps 746 mmHg 80%
    02:00 +25°C° 0 mm 5 mps 746 mmHg 80%
    03:00 +25°C° 0 mm 5 mps 746 mmHg 81%
    04:00 +24°C° 0 mm 6 mps 746 mmHg 80%
    05:00 +24°C° 0 mm 6 mps 746 mmHg 80%
    06:00 +24°C° 0 mm 6 mps 747 mmHg 79%
    07:00 +26°C° 0 mm 7 mps 747 mmHg 72%
    08:00 +28°C° 0 mm 8 mps 747 mmHg 64%
    09:00 +31°C° 0 mm 8 mps 748 mmHg 56%
    10:00 +32°C° 0 mm 8 mps 747 mmHg 51%
    11:00 +34°C° 0 mm 8 mps 747 mmHg 45%
    12:00 +35°C° 0 mm 8 mps 746 mmHg 39%
    13:00 +35°C° 0 mm 7 mps 745 mmHg 39%
    14:00 +35°C° 0 mm 7 mps 745 mmHg 38%
    15:00 +35°C° 0 mm 7 mps 744 mmHg 38%
    16:00 +34°C° 0 mm 6 mps 744 mmHg 44%
    17:00 +32°C° 0 mm 5 mps 745 mmHg 51%
    18:00 +29°C° 0 mm 5 mps 745 mmHg 57%
    19:00 +28°C° 0 mm 5 mps 746 mmHg 63%
    20:00 +27°C° 0 mm 5 mps 746 mmHg 69%
    21:00 +26°C° 0 mm 4 mps 747 mmHg 74%
    22:00 +25°C° 0 mm 5 mps 746 mmHg 76%
    23:00 +25°C° 0 mm 5 mps 746 mmHg 78%

    24 February, Saturday

    Time Temperature Precipitation Wind Pressure Humidity
    00:00 +25°C° 0 mm 5 mps 746 mmHg 80%
    01:00 +23°C° 0 mm 5 mps 746 mmHg 81%
    02:00 +23°C° 0 mm 5 mps 746 mmHg 82%
    03:00 +23°C° 0 mm 4 mps 745 mmHg 83%
    04:00 +23°C° 0 mm 4 mps 745 mmHg 83%
    05:00 +23°C° 0 mm 4 mps 746 mmHg 84%
    06:00 +23°C° 0 mm 4 mps 746 mmHg 84%
    07:00 +26°C° 0 mm 5 mps 746 mmHg 75%
    08:00 +28°C° 0 mm 5 mps 747 mmHg 66%
    09:00 +30°C° 0 mm 6 mps 747 mmHg 56%
    10:00 +32°C° 0 mm 6 mps 747 mmHg 51%
    11:00 +34°C° 0 mm 6 mps 746 mmHg 46%
    12:00 +35°C° 0 mm 6 mps 746 mmHg 40%
    13:00 +35°C° 0 mm 5 mps 745 mmHg 41%
    14:00 +35°C° 0 mm 5 mps 745 mmHg 42%
    15:00 +34°C° 0 mm 4 mps 744 mmHg 43%
    16:00 +33°C° 0.1 mm 4 mps 745 mmHg 51%
    17:00 +30°C° 0.1 mm 3 mps 745 mmHg 58%
    18:00 +28°C° 0.1 mm 3 mps 745 mmHg 66%
    19:00 +27°C° 0.1 mm 3 mps 746 mmHg 70%
    20:00 +26°C° 0.1 mm 3 mps 746 mmHg 75%
    21:00 +25°C° 0.1 mm 3 mps 747 mmHg 80%
    22:00 +25°C° 0 mm 3 mps 746 mmHg 82%
    23:00 +24°C° 0 mm 3 mps 746 mmHg 84%

    25 February, Sunday

    Time Temperature Precipitation Wind Pressure Humidity
    00:00 +24°C° 0 mm 3 mps 746 mmHg 87%
    01:00 +24°C° 0 mm 3 mps 746 mmHg 87%
    02:00 +22°C° 0 mm 3 mps 746 mmHg 88%
    03:00 +22°C° 0 mm 3 mps 746 mmHg 88%
    04:00 +22°C° 0 mm 3 mps 746 mmHg 89%
    05:00 +22°C° 0 mm 3 mps 746 mmHg 89%
    06:00 +22°C° 0 mm 3 mps 746 mmHg 89%
    07:00 +25°C° 0 mm 3 mps 747 mmHg 79%
    08:00 +27°C° 0 mm 4 mps 747 mmHg 69%
    09:00 +29°C° 0 mm 4 mps 748 mmHg 59%
    10:00 +32°C° 0 mm 4 mps 747 mmHg 53%
    11:00 +33°C° 0 mm 4 mps 747 mmHg 48%
    12:00 +35°C° 0 mm 3 mps 746 mmHg 42%
    13:00 +34°C° 0.1 mm 4 mps 746 mmHg 44%
    14:00 +34°C° 0.1 mm 4 mps 745 mmHg 46%
    15:00 +33°C° 0.1 mm 4 mps 745 mmHg 48%
    16:00 +32°C° 0.4 mm 4 mps 745 mmHg 56%
    17:00 +29°C° 0.4 mm 3 mps 745 mmHg 63%
    18:00 +27°C° 0.4 mm 3 mps 745 mmHg 70%
    19:00 +27°C° 0 mm 3 mps 746 mmHg 74%
    20:00 +26°C° 0 mm 3 mps 746 mmHg 78%
    21:00 +25°C° 0 mm 3 mps 747 mmHg 82%
    22:00 +25°C° 0 mm 3 mps 747 mmHg 83%
    23:00 +24°C° 0 mm 3 mps 746 mmHg 85%
    Show more